This is the latest recevied weather packets stored in our database for station/object KC1ELF. If no packets are shown the sender has not sent any weather packets the latest 1 day(s).
| Time | Temp. | Humidity | Pressure | Rain* | Wind** | Luminosity | Snow |
|---|---|---|---|---|---|---|---|
| 1778040695 | 17.78° C | 62% | 1009.5 hPa | 0 mm | 1.34 m/s, 253° | - | - |
| 1778040095 | 17.78° C | 62% | 1009.5 hPa | 0 mm | 0.89 m/s, 279° | - | - |
| 1778039495 | 17.78° C | 61% | 1009.5 hPa | 0 mm | 1.34 m/s, 306° | - | - |
| 1778038895 | 18.33° C | 60% | 1009.4 hPa | 0 mm | 1.34 m/s, 259° | - | - |
| 1778038296 | 18.33° C | 60% | 1009.5 hPa | 0 mm | 2.24 m/s, 253° | - | - |
| 1778037695 | 18.33° C | 59% | 1009.5 hPa | 0 mm | 1.34 m/s, 263° | - | - |
| 1778037095 | 18.33° C | 59% | 1009.4 hPa | 0 mm | 1.79 m/s, 149° | - | - |
| 1778036436 | 18.89° C | 58% | 1009.3 hPa | 0 mm | 1.79 m/s, 294° | - | - |
| 1778035895 | 18.89° C | 58% | 1009.5 hPa | 0 mm | 1.79 m/s, 278° | - | - |
| 1778035295 | 18.89° C | 57% | 1009.4 hPa | 0 mm | 1.34 m/s, 244° | - | - |
| 1778034695 | 19.44° C | 57% | 1009.5 hPa | 0 mm | 1.79 m/s, 349° | - | - |
| 1778034095 | 19.44° C | 56% | 1009.6 hPa | 0 mm | 1.34 m/s, 280° | - | - |
| 1778033495 | 20° C | 55% | 1009.5 hPa | 0 mm | 1.34 m/s, 239° | - | - |
| 1778032895 | 20° C | 54% | 1009.5 hPa | 0 mm | 1.34 m/s, 244° | - | - |
| 1778032296 | 20.56° C | 53% | 1009.4 hPa | 0 mm | 2.24 m/s, 264° | - | - |
| 1778031696 | 20.56° C | 53% | 1009.3 hPa | 0 mm | 2.24 m/s, 287° | - | - |
| 1778031095 | 21.11° C | 52% | 1009.1 hPa | 0 mm | 2.68 m/s, 46° | - | - |
| 1778030495 | 21.11° C | 51% | 1009.1 hPa | 0 mm | 2.24 m/s, 285° | - | - |
| 1778029895 | 21.11° C | 50% | 1008.5 hPa | 0 mm | 2.68 m/s, 293° | - | - |
| 1778029295 | 21.67° C | 49% | 1008.3 hPa | 0 mm | 3.58 m/s, 306° | - | - |
| 1778028695 | 21.67° C | 48% | 1008.2 hPa | 0 mm | 1.79 m/s, 56° | - | - |
| 1778028095 | 22.22° C | 47% | 1007.9 hPa | 0 mm | 5.36 m/s, 236° | - | - |
| 1778027495 | 22.22° C | 47% | 1007.4 hPa | 0 mm | 2.68 m/s, 281° | - | - |
| 1778026895 | 22.22° C | 46% | 1007.3 hPa | 0 mm | 3.13 m/s, 252° | - | - |
| 1778026295 | 22.78° C | 45% | 1007.1 hPa | 0 mm | 1.79 m/s, 101° | - | - |
* Rain latest hour (hover to see other rain measurements)
** Current wind speed in m/s (hover to see current wind gust speed)